Location: New Greens
(51.7702°N, 0.3379°W)
Time: 17:18:52
(UTC+00:00)

N. Korean satellite - Visible Passes

Search period start: 01 October 2020 00:00
Search period end: 11 October 2020 00:00
Orbit: 454 x 503 km, 97.2° (Epoch: 30 September)

Date Brightness Start Highest point End Pass type
(mag) Time Alt. Az. Time Alt. Az. Time Alt. Az.
02 Oct 7.9 05:23:38 10° NNE 05:27:09 46° E 05:30:34 10° S visible
03 Oct 9.2 04:57:57 10° NE 05:00:57 24° E 05:03:54 10° SSE visible
04 Oct 10.0 04:32:50 10° ENE 04:34:39 13° E 04:36:27 10° ESE visible
06 Oct 8.5 05:12:53 10° NNE 05:16:12 34° E 05:19:27 10° SSE visible
07 Oct 9.7 04:47:21 10° NE 04:49:57 19° E 04:52:30 10° SE visible
08 Oct 10.4 04:23:18 10° E 04:23:35 10° E 04:23:53 10° E visible
09 Oct 7.5 05:27:53 10° NNE 05:31:23 51° E 05:34:48 10° S visible
10 Oct 9.0 05:02:07 10° NE 05:05:10 26° E 05:08:10 10° SSE visible
